| time (UTC) | temp F | wind direction | speed MPH | gust MPH | rain 1hr in | rain 24hr in | rain mn in | humidity % | barometer mb |
| 20260506171305 | 64 | 274 | 3.0 | 9.0 | 0.02 | 0.19 | 0.19 | 80 | 1011.9 |
| 20260506170805 | 64 | 214 | 3.0 | 12.0 | 0.03 | 0.19 | 0.19 | 79 | 1012.1 |
| 20260506170305 | 64 | 188 | 2.0 | 7.0 | 0.03 | 0.19 | 0.19 | 83 | 1012.6 |
| 20260506165805 | 63 | 291 | 5.0 | 10.0 | 0.03 | 0.19 | 0.19 | 82 | 1012.8 |
| 20260506165306 | 63 | 215 | 3.0 | 15.0 | 0.03 | 0.19 | 0.19 | 85 | 1013.1 |
| 20260506164805 | 62 | 242 | 5.0 | 10.0 | 0.03 | 0.19 | 0.19 | 87 | 1013.4 |
| 20260506164305 | 62 | 256 | 7.0 | 12.0 | 0.03 | 0.19 | 0.19 | 87 | 1013.5 |
| 20260506163805 | 62 | 269 | 5.0 | 12.0 | 0.03 | 0.19 | 0.19 | 88 | 1014.0 |
| 20260506163305 | 61 | 253 | 3.0 | 8.0 | 0.03 | 0.19 | 0.19 | 89 | 1013.9 |
| 20260506162805 | 61 | 240 | 4.0 | 8.0 | 0.03 | 0.19 | 0.19 | 90 | 1013.8 |
| 20260506162307 | 61 | 269 | 6.0 | 10.0 | 0.03 | 0.19 | 0.19 | 90 | 1013.8 |
| 20260506161805 | 60 | 227 | 1.0 | 2.0 | 0.02 | 0.18 | 0.18 | 90 | 1014.1 |
| 20260506161305 | 60 | 87 | 1.0 | 2.0 | 0.01 | 0.17 | 0.17 | 90 | 1014.0 |
| 20260506160305 | 60 | 45 | 1.0 | 2.0 | 0.00 | 0.16 | 0.16 | 89 | 1013.8 |
| 20260506155805 | 60 | 94 | 1.0 | 3.0 | 0.00 | 0.16 | 0.16 | 88 | 1013.6 |
| 20260506155306 | 61 | 58 | 1.0 | 3.0 | 0.00 | 0.16 | 0.16 | 89 | 1013.5 |
| 20260506154804 | 60 | 24 | 2.0 | 6.0 | 0.00 | 0.16 | 0.16 | 90 | 1013.7 |
| 20260506154305 | 60 | 356 | 3.0 | 6.0 | 0.00 | 0.16 | 0.16 | 90 | 1013.7 |
| 20260506153804 | 60 | 19 | 2.0 | 5.0 | 0.00 | 0.16 | 0.16 | 90 | 1013.6 |
| 20260506152804 | 59 | 36 | 0.0 | 3.0 | 0.00 | 0.16 | 0.16 | 91 | 1013.5 |
| 20260506152306 | 59 | 54 | 1.0 | 3.0 | 0.00 | 0.16 | 0.16 | 90 | 1013.5 |
| 20260506151804 | 59 | 56 | 2.0 | 5.0 | 0.00 | 0.16 | 0.16 | 90 | 1013.2 |
| 20260506150804 | 59 | 42 | 2.0 | 3.0 | 0.00 | 0.16 | 0.16 | 91 | 1013.1 |
| 20260506150305 | 58 | 41 | 1.0 | 5.0 | 0.00 | 0.16 | 0.16 | 92 | 1013.7 |
| 20260506145805 | 58 | 36 | 2.0 | 5.0 | 0.00 | 0.16 | 0.16 | 92 | 1013.5 |
| 20260506145306 | 58 | 29 | 2.0 | 3.0 | 0.00 | 0.16 | 0.16 | 92 | 1013.5 |
| 20260506144304 | 58 | 44 | 1.0 | 2.0 | 0.00 | 0.16 | 0.16 | 92 | 1013.6 |
| 20260506143804 | 58 | 44 | 1.0 | 2.0 | 0.00 | 0.16 | 0.16 | 92 | 1013.3 |
| 20260506143304 | 58 | 44 | 0.0 | 5.0 | 0.01 | 0.16 | 0.16 | 93 | 1013.3 |
| 20260506142805 | 58 | 41 | 2.0 | 5.0 | 0.01 | 0.16 | 0.16 | 93 | 1013.5 |
| 20260506142306 | 58 | 22 | 1.0 | 2.0 | 0.02 | 0.16 | 0.16 | 93 | 1013.5 |
| 20260506141804 | 58 | 26 | 1.0 | 3.0 | 0.02 | 0.16 | 0.16 | 93 | 1013.7 |
| 20260506141304 | 58 | 305 | 1.0 | 5.0 | 0.03 | 0.16 | 0.16 | 94 | 1013.5 |
| 20260506140804 | 57 | 46 | 3.0 | 5.0 | 0.04 | 0.16 | 0.16 | 93 | 1013.5 |
| 20260506140305 | 57 | 28 | 1.0 | 3.0 | 0.04 | 0.16 | 0.16 | 94 | 1013.4 |
| 20260506135306 | 56 | 9 | 2.0 | 3.0 | 0.04 | 0.16 | 0.16 | 93 | 1014.2 |
| 20260506134805 | 56 | 288 | 1.0 | 2.0 | 0.04 | 0.16 | 0.16 | 92 | 1013.8 |
| 20260506134304 | 57 | 284 | 1.0 | 2.0 | 0.04 | 0.16 | 0.16 | 92 | 1013.9 |
| 20260506133804 | 56 | 283 | 0.0 | 3.0 | 0.04 | 0.16 | 0.16 | 91 | 1014.1 |
| 20260506133304 | 56 | 275 | 1.0 | 3.0 | 0.03 | 0.15 | 0.15 | 91 | 1014.0 |
| 20260506132804 | 56 | 313 | 0.0 | 2.0 | 0.03 | 0.15 | 0.15 | 90 | 1013.8 |
| 20260506132307 | 56 | 295 | 1.0 | 2.0 | 0.02 | 0.14 | 0.14 | 89 | 1013.7 |
| 20260506131304 | 57 | 249 | 1.0 | 5.0 | 0.02 | 0.13 | 0.13 | 89 | 1013.6 |
| 20260506130804 | 57 | 269 | 2.0 | 6.0 | 0.01 | 0.12 | 0.12 | 86 | 1013.8 |
| 20260506130304 | 57 | 258 | 3.0 | 12.0 | 0.01 | 0.12 | 0.12 | 84 | 1013.6 |
| 20260506125804 | 57 | 261 | 5.0 | 10.0 | 0.01 | 0.12 | 0.12 | 85 | 1013.7 |
| 20260506125305 | 57 | 264 | 6.0 | 10.0 | 0.02 | 0.12 | 0.12 | 85 | 1013.6 |
| 20260506124804 | 56 | 247 | 5.0 | 7.0 | 0.04 | 0.12 | 0.12 | 86 | 1013.8 |
| 20260506124304 | 56 | 226 | 2.0 | 7.0 | 0.06 | 0.12 | 0.12 | 87 | 1013.6 |
| 20260506123804 | 56 | 242 | 3.0 | 9.0 | 0.10 | 0.12 | 0.12 | 87 | 1013.4 |
| 20260506123304 | 56 | 242 | 5.0 | 9.0 | 0.11 | 0.12 | 0.12 | 87 | 1013.2 |
| 20260506122805 | 56 | 248 | 5.0 | 13.0 | 0.12 | 0.12 | 0.12 | 86 | 1013.4 |
| 20260506122306 | 56 | 241 | 3.0 | 6.0 | 0.12 | 0.12 | 0.12 | 86 | 1013.2 |
| 20260506121804 | 56 | 226 | 3.0 | 8.0 | 0.12 | 0.12 | 0.12 | 87 | 1013.4 |
| 20260506121306 | 56 | 225 | 5.0 | 9.0 | 0.11 | 0.11 | 0.11 | 87 | 1013.5 |
| 20260506120805 | 55 | 244 | 6.0 | 9.0 | 0.11 | 0.11 | 0.11 | 88 | 1013.8 |
| 20260506120304 | 55 | 174 | 3.0 | 8.0 | 0.11 | 0.11 | 0.11 | 89 | 1014.0 |
| 20260506115804 | 55 | 185 | 2.0 | 7.0 | 0.11 | 0.11 | 0.11 | 89 | 1013.9 |
| 20260506115307 | 55 | 239 | 3.0 | 7.0 | 0.10 | 0.10 | 0.10 | 90 | 1014.0 |
| 20260506114804 | 55 | 253 | 0.0 | 3.0 | 0.08 | 0.08 | 0.08 | 89 | 1014.1 |
| 20260506114304 | 55 | 261 | 2.0 | 10.0 | 0.06 | 0.06 | 0.06 | 88 | 1014.2 |
| 20260506113804 | 56 | 267 | 7.0 | 13.0 | 0.02 | 0.02 | 0.02 | 85 | 1014.1 |
| 20260506113304 | 57 | 272 | 3.0 | 10.0 | 0.01 | 0.01 | 0.01 | 81 | 1013.4 |
| 20260506112803 | 57 | 253 | 3.0 | 10.0 | 0.00 | 0.00 | 0.00 | 79 | 1012.9 |
| 20260506112306 | 57 | 240 | 2.0 | 9.0 | 0.00 | 0.00 | 0.00 | 78 | 1013.0 |
| 20260506111804 | 57 | 265 | 6.0 | 9.0 | 0.00 | 0.00 | 0.00 | 76 | 1012.7 |
| 20260506111304 | 57 | 262 | 6.0 | 14.0 | 0.00 | 0.00 | 0.00 | 75 | 1012.6 |
| 20260506105804 | 57 | 238 | 7.0 | 21.0 | 0.00 | 0.00 | 0.00 | 75 | 1011.9 |
| 20260506105305 | 57 | 222 | 8.0 | 17.0 | 0.00 | 0.00 | 0.00 | 75 | 1012.0 |
| 20260506104304 | 57 | 246 | 7.0 | 17.0 | 0.00 | 0.00 | 0.00 | 76 | 1012.0 |
| 20260506103803 | 57 | 202 | 11.0 | 17.0 | 0.00 | 0.00 | 0.00 | 75 | 1011.9 |
| 20260506103304 | 57 | 200 | 7.0 | 16.0 | 0.00 | 0.00 | 0.00 | 75 | 1012.0 |
| 20260506102305 | 57 | 285 | 5.0 | 17.0 | 0.00 | 0.00 | 0.00 | 74 | 1011.9 |
| 20260506101804 | 57 | 260 | 6.0 | 13.0 | 0.00 | 0.00 | 0.00 | 74 | 1011.8 |
| 20260506101303 | 57 | 259 | 6.0 | 18.0 | 0.00 | 0.00 | 0.00 | 73 | 1011.7 |
| 20260506100804 | 57 | 213 | 7.0 | 18.0 | 0.00 | 0.00 | 0.00 | 73 | 1011.7 |
| 20260506100303 | 57 | 227 | 7.0 | 16.0 | 0.00 | 0.00 | 0.00 | 73 | 1011.7 |
| 20260506095804 | 57 | 202 | 6.0 | 16.0 | 0.00 | 0.00 | 0.00 | 72 | 1011.5 |
| 20260506095305 | 57 | 238 | 5.0 | 14.0 | 0.00 | 0.00 | 0.00 | 72 | 1011.8 |
| 20260506094804 | 57 | 246 | 7.0 | 14.0 | 0.00 | 0.00 | 0.00 | 72 | 1011.8 |
| 20260506094303 | 57 | 172 | 3.0 | 10.0 | 0.00 | 0.00 | 0.00 | 72 | 1012.0 |
| 20260506093803 | 57 | 195 | 3.0 | 12.0 | 0.00 | 0.00 | 0.00 | 72 | 1011.7 |
| 20260506093304 | 57 | 250 | 3.0 | 15.0 | 0.00 | 0.00 | 0.00 | 71 | 1011.8 |
| 20260506092803 | 57 | 245 | 1.0 | 10.0 | 0.00 | 0.00 | 0.00 | 71 | 1011.9 |
| 20260506091803 | 57 | 225 | 2.0 | 12.0 | 0.00 | 0.00 | 0.00 | 71 | 1011.9 |
| 20260506091304 | 57 | 250 | 2.0 | 14.0 | 0.00 | 0.00 | 0.00 | 71 | 1011.8 |
| 20260506090807 | 57 | 231 | 6.0 | 14.0 | 0.00 | 0.00 | 0.00 | 71 | 1011.8 |
| 20260506090308 | 57 | 213 | 6.0 | 12.0 | 0.00 | 0.00 | 0.00 | 70 | 1011.9 |
| 20260506085808 | 57 | 266 | 5.0 | 15.0 | 0.00 | 0.00 | 0.00 | 70 | 1012.1 |
| 20260506085307 | 58 | 244 | 6.0 | 17.0 | 0.00 | 0.00 | 0.00 | 70 | 1011.9 |
| 20260506084808 | 58 | 210 | 8.0 | 22.0 | 0.00 | 0.00 | 0.00 | 68 | 1012.1 |
| 20260506084307 | 58 | 237 | 7.0 | 22.0 | 0.00 | 0.00 | 0.00 | 67 | 1012.0 |
| 20260506083807 | 58 | 241 | 6.0 | 17.0 | 0.00 | 0.00 | 0.00 | 66 | 1012.1 |
| 20260506083307 | 58 | 251 | 7.0 | 16.0 | 0.00 | 0.00 | 0.00 | 66 | 1012.0 |
| 20260506082808 | 58 | 243 | 9.0 | 18.0 | 0.00 | 0.00 | 0.00 | 66 | 1011.7 |
| 20260506082307 | 58 | 243 | 7.0 | 18.0 | 0.00 | 0.00 | 0.00 | 66 | 1012.0 |
| 20260506081808 | 58 | 247 | 5.0 | 10.0 | 0.00 | 0.00 | 0.00 | 66 | 1011.8 |
| 20260506081309 | 58 | 234 | 4.0 | 10.0 | 0.00 | 0.00 | 0.00 | 66 | 1012.0 |
| 20260506080807 | 58 | 230 | 3.0 | 9.0 | 0.00 | 0.00 | 0.00 | 65 | 1012.0 |
| 20260506080308 | 58 | 278 | 4.0 | 8.0 | 0.00 | 0.00 | 0.00 | 65 | 1012.0 |
| 20260506073307 | 60 | 179 | 10.0 | 22.0 | 0.00 | 0.00 | 0.00 | 62 | 1011.6 |
| 20260506072808 | 60 | 226 | 2.0 | 9.0 | 0.00 | 0.00 | 0.00 | 62 | 1011.8 |
| 20260506072308 | 60 | 241 | 6.0 | 17.0 | 0.00 | 0.00 | 0.00 | 61 | 1011.6 |
| 20260506071807 | 60 | 238 | 9.0 | 25.0 | 0.00 | 0.00 | 0.00 | 61 | 1011.6 |
| 20260506071307 | 60 | 209 | 11.0 | 21.0 | 0.00 | 0.00 | 0.00 | 61 | 1012.0 |
| 20260506070807 | 60 | 190 | 10.0 | 17.0 | 0.00 | 0.00 | 0.00 | 60 | 1011.8 |
| 20260506070307 | 61 | 207 | 7.0 | 18.0 | 0.00 | 0.00 | 0.00 | 60 | 1011.8 |
| 20260506061807 | 61 | 247 | 8.0 | 17.0 | 0.00 | 0.00 | 0.00 | 59 | 1011.8 |
| 20260506061307 | 61 | 261 | 3.0 | 14.0 | 0.00 | 0.00 | 0.00 | 59 | 1011.8 |
| 20260506060807 | 61 | 256 | 8.0 | 21.0 | 0.00 | 0.00 | 0.00 | 58 | 1011.8 |
| 20260506060307 | 61 | 213 | 7.0 | 17.0 | 0.00 | 0.00 | 0.00 | 58 | 1012.1 |
| 20260506050806 | 61 | 189 | 10.0 | 16.0 | 0.00 | 0.00 | 0.00 | 56 | 1012.8 |
| 20260506050307 | 61 | 243 | 5.0 | 15.0 | 0.00 | 0.00 | 0.00 | 56 | 1013.0 |
| 20260506044807 | 62 | 253 | 1.0 | 16.0 | 0.00 | 0.00 | 0.00 | 56 | 1013.0 |
| 20260506043806 | 62 | 257 | 5.0 | 20.0 | 0.00 | 0.00 | 0.00 | 55 | 1012.8 |
| 20260506042306 | 62 | 271 | 3.0 | 7.0 | 0.00 | 0.00 | 0.00 | 55 | 1012.9 |
| 20260506041807 | 62 | 225 | 3.0 | 7.0 | 0.00 | 0.00 | 0.00 | 55 | 1013.1 |
| 20260506041307 | 62 | 299 | 5.0 | 12.0 | 0.00 | 0.00 | 0.00 | 54 | 1012.8 |
| 20260506040307 | 62 | 218 | 7.0 | 14.0 | 0.00 | 0.00 | 0.00 | 54 | 1012.7 |
| 20260506035807 | 62 | 251 | 6.0 | 10.0 | 0.00 | 0.00 | 0.00 | 54 | 1012.9 |
| 20260506034807 | 62 | 222 | 6.0 | 13.0 | 0.00 | 0.00 | 0.00 | 54 | 1013.0 |
| 20260506034307 | 61 | 215 | 6.0 | 13.0 | 0.00 | 0.00 | 0.00 | 54 | 1013.1 |
| 20260506033807 | 62 | 225 | 3.0 | 16.0 | 0.00 | 0.00 | 0.00 | 54 | 1012.9 |
| 20260506033307 | 62 | 238 | 5.0 | 21.0 | 0.00 | 0.00 | 0.00 | 53 | 1013.0 |
| 20260506032806 | 62 | 228 | 8.0 | 16.0 | 0.00 | 0.00 | 0.00 | 53 | 1013.1 |
| 20260506031807 | 61 | 182 | 4.0 | 7.0 | 0.00 | 0.00 | 0.00 | 53 | 1013.3 |
| 20260506030806 | 61 | 98 | 3.0 | 12.0 | 0.00 | 0.00 | 0.00 | 53 | 1013.2 |
| 20260506030307 | 61 | 49 | 3.0 | 7.0 | 0.00 | 0.00 | 0.00 | 54 | 1012.7 |
| 20260506025806 | 62 | 66 | 3.0 | 7.0 | 0.00 | 0.00 | 0.00 | 52 | 1013.0 |
| 20260506025307 | 62 | 326 | 3.0 | 13.0 | 0.00 | 0.00 | 0.00 | 52 | 1012.8 |
| 20260506024806 | 62 | 251 | 9.0 | 13.0 | 0.00 | 0.00 | 0.00 | 52 | 1012.7 |
| 20260506024306 | 61 | 211 | 2.0 | 10.0 | 0.00 | 0.00 | 0.00 | 52 | 1013.0 |
| 20260506023807 | 62 | 92 | 3.0 | 9.0 | 0.00 | 0.00 | 0.00 | 51 | 1013.2 |
| 20260506022806 | 62 | 214 | 6.0 | 12.0 | 0.00 | 0.00 | 0.00 | 51 | 1013.1 |
| 20260506022306 | 62 | 227 | 5.0 | 10.0 | 0.00 | 0.00 | 0.00 | 51 | 1013.1 |
| 20260506021807 | 62 | 238 | 3.0 | 10.0 | 0.00 | 0.00 | 0.00 | 51 | 1013.3 |
| 20260506021306 | 62 | 271 | 2.0 | 13.0 | 0.00 | 0.00 | 0.00 | 51 | 1013.5 |
| 20260506020806 | 62 | 177 | 5.0 | 13.0 | 0.00 | 0.00 | 0.00 | 51 | 1013.2 |
| 20260506020307 | 62 | 204 | 2.0 | 8.0 | 0.00 | 0.00 | 0.00 | 51 | 1013.1 |
| 20260506015807 | 62 | 227 | 2.0 | 6.0 | 0.00 | 0.00 | 0.00 | 50 | 1013.3 |
| 20260506015307 | 62 | 282 | 2.0 | 10.0 | 0.00 | 0.00 | 0.00 | 50 | 1013.1 |
| 20260506014307 | 62 | 104 | 2.0 | 7.0 | 0.00 | 0.00 | 0.00 | 50 | 1013.3 |
| 20260506013807 | 62 | 156 | 5.0 | 12.0 | 0.00 | 0.00 | 0.00 | 49 | 1013.0 |
| 20260506012806 | 62 | 223 | 5.0 | 10.0 | 0.00 | 0.00 | 0.00 | 49 | 1013.1 |
| 20260506012308 | 62 | 255 | 3.0 | 7.0 | 0.00 | 0.00 | 0.00 | 48 | 1013.1 |
| 20260506011806 | 62 | 82 | 1.0 | 5.0 | 0.00 | 0.00 | 0.00 | 48 | 1013.3 |
| 20260506011307 | 62 | 171 | 1.0 | 8.0 | 0.00 | 0.00 | 0.00 | 48 | 1013.1 |
| 20260506010806 | 62 | 238 | 2.0 | 6.0 | 0.00 | 0.00 | 0.00 | 47 | 1013.5 |
| 20260506010306 | 62 | 56 | 1.0 | 7.0 | 0.00 | 0.00 | 0.00 | 48 | 1013.0 |
| 20260506005807 | 63 | 286 | 3.0 | 13.0 | 0.00 | 0.00 | 0.00 | 47 | 1012.8 |
| 20260506005307 | 63 | 213 | 4.0 | 13.0 | 0.00 | 0.00 | 0.00 | 47 | 1012.9 |
| 20260506004806 | 63 | 234 | 5.0 | 13.0 | 0.00 | 0.00 | 0.00 | 46 | 1013.2 |
| 20260506004306 | 63 | 250 | 3.0 | 12.0 | 0.00 | 0.00 | 0.00 | 46 | 1013.0 |
| 20260506003806 | 63 | 171 | 3.0 | 12.0 | 0.00 | 0.00 | 0.00 | 46 | 1013.1 |
| 20260506003306 | 63 | 176 | 7.0 | 12.0 | 0.00 | 0.00 | 0.00 | 46 | 1012.9 |
| 20260506002807 | 64 | 244 | 3.0 | 15.0 | 0.00 | 0.00 | 0.00 | 46 | 1013.1 |
| 20260506002307 | 64 | 218 | 7.0 | 13.0 | 0.00 | 0.00 | 0.00 | 45 | 1012.8 |
| 20260506001806 | 63 | 166 | 6.0 | 16.0 | 0.00 | 0.00 | 0.00 | 45 | 1012.8 |
| 20260506001306 | 64 | 287 | 2.0 | 9.0 | 0.00 | 0.00 | 0.00 | 46 | 1012.8 |
| 20260506000806 | 64 | 278 | 3.0 | 14.0 | 0.00 | 0.00 | 0.00 | 46 | 1012.7 |
| 20260506000305 | 64 | 209 | 2.0 | 10.0 | 0.00 | 0.00 | 0.00 | 46 | 1012.8 |
| 20260505234806 | 64 | 255 | 6.0 | 13.0 | 0.00 | 0.00 | 0.00 | 45 | 1012.8 |
| 20260505234306 | 65 | 217 | 2.0 | 15.0 | 0.00 | 0.00 | 0.00 | 44 | 1012.5 |
| 20260505233806 | 65 | 200 | 6.0 | 16.0 | 0.00 | 0.00 | 0.00 | 44 | 1012.4 |
| 20260505233306 | 65 | 231 | 8.0 | 16.0 | 0.00 | 0.00 | 0.00 | 43 | 1012.4 |
| 20260505232306 | 65 | 153 | 12.0 | 20.0 | 0.00 | 0.00 | 0.00 | 43 | 1012.3 |
| 20260505231806 | 65 | 239 | 6.0 | 17.0 | 0.00 | 0.00 | 0.00 | 42 | 1012.5 |
| 20260505230306 | 65 | 257 | 10.0 | 18.0 | 0.00 | 0.00 | 0.00 | 41 | 1012.4 |
| 20260505225805 | 65 | 230 | 4.0 | 15.0 | 0.00 | 0.00 | 0.00 | 43 | 1012.3 |
| 20260505225306 | 66 | 187 | 7.0 | 16.0 | 0.00 | 0.00 | 0.00 | 42 | 1012.1 |
| 20260505224806 | 66 | 175 | 6.0 | 17.0 | 0.00 | 0.00 | 0.00 | 42 | 1012.0 |
| 20260505224305 | 66 | 217 | 7.0 | 17.0 | 0.00 | 0.00 | 0.00 | 42 | 1011.9 |
| 20260505223805 | 66 | 226 | 7.0 | 18.0 | 0.00 | 0.00 | 0.00 | 42 | 1011.8 |
| 20260505221805 | 67 | 226 | 10.0 | 17.0 | 0.00 | 0.00 | 0.00 | 40 | 1011.5 |
| 20260505221306 | 68 | 229 | 9.0 | 14.0 | 0.00 | 0.00 | 0.00 | 39 | 1011.4 |
| 20260505215805 | 68 | 190 | 3.0 | 16.0 | 0.00 | 0.00 | 0.00 | 38 | 1011.2 |
| 20260505215306 | 68 | 205 | 10.0 | 16.0 | 0.00 | 0.00 | 0.00 | 37 | 1011.4 |
| 20260505214306 | 69 | 202 | 11.0 | 18.0 | 0.00 | 0.00 | 0.00 | 37 | 1011.3 |
| 20260505213806 | 69 | 190 | 9.0 | 15.0 | 0.00 | 0.00 | 0.00 | 36 | 1011.3 |
| 20260505213306 | 69 | 212 | 7.0 | 18.0 | 0.00 | 0.00 | 0.00 | 37 | 1011.0 |
| 20260505212805 | 69 | 208 | 10.0 | 20.0 | 0.00 | 0.00 | 0.00 | 37 | 1011.0 |
| 20260505212306 | 69 | 242 | 6.0 | 14.0 | 0.00 | 0.00 | 0.00 | 38 | 1011.3 |
| 20260505211806 | 68 | 175 | 7.0 | 18.0 | 0.00 | 0.00 | 0.00 | 37 | 1011.4 |
| 20260505211305 | 69 | 209 | 7.0 | 14.0 | 0.00 | 0.00 | 0.00 | 38 | 1011.2 |
| 20260505210306 | 69 | 259 | 9.0 | 18.0 | 0.00 | 0.00 | 0.00 | 36 | 1011.0 |
| 20260505205805 | 71 | 168 | 13.0 | 18.0 | 0.00 | 0.00 | 0.00 | 35 | 1010.7 |
| 20260505205306 | 71 | 219 | 6.0 | 16.0 | 0.00 | 0.00 | 0.00 | 35 | 1010.9 |
| 20260505204806 | 70 | 191 | 10.0 | 17.0 | 0.00 | 0.00 | 0.00 | 36 | 1011.2 |
| 20260505204305 | 71 | 209 | 6.0 | 16.0 | 0.00 | 0.00 | 0.00 | 35 | 1011.0 |
| 20260505203305 | 71 | 229 | 10.0 | 16.0 | 0.00 | 0.00 | 0.00 | 36 | 1011.2 |
| 20260505202805 | 70 | 174 | 6.0 | 24.0 | 0.00 | 0.00 | 0.00 | 37 | 1011.4 |
| 20260505202307 | 69 | 189 | 13.0 | 25.0 | 0.00 | 0.00 | 0.00 | 35 | 1011.5 |
| 20260505201805 | 69 | 216 | 12.0 | 25.0 | 0.00 | 0.00 | 0.00 | 36 | 1011.4 |
| 20260505201305 | 70 | 225 | 12.0 | 18.0 | 0.00 | 0.00 | 0.00 | 34 | 1011.3 |
| 20260505200805 | 70 | 182 | 7.0 | 16.0 | 0.00 | 0.00 | 0.00 | 34 | 1010.9 |
| 20260505200305 | 70 | 234 | 7.0 | 24.0 | 0.00 | 0.00 | 0.00 | 34 | 1011.1 |
| 20260505195805 | 71 | 229 | 16.0 | 24.0 | 0.00 | 0.00 | 0.00 | 31 | 1011.0 |
| 20260505195305 | 71 | 146 | 3.0 | 17.0 | 0.00 | 0.00 | 0.00 | 32 | 1010.8 |
| 20260505194806 | 71 | 233 | 10.0 | 17.0 | 0.00 | 0.00 | 0.00 | 31 | 1011.3 |
| 20260505193805 | 72 | 213 | 1.0 | 16.0 | 0.00 | 0.00 | 0.00 | 35 | 1011.5 |
| 20260505193306 | 70 | 157 | 10.0 | 16.0 | 0.00 | 0.00 | 0.00 | 35 | 1011.7 |
| 20260505192806 | 70 | 181 | 7.0 | 17.0 | 0.00 | 0.00 | 0.00 | 33 | 1011.8 |
| 20260505192306 | 70 | 222 | 13.0 | 24.0 | 0.00 | 0.00 | 0.00 | 30 | 1011.5 |
| 20260505191805 | 70 | 207 | 11.0 | 24.0 | 0.00 | 0.00 | 0.00 | 29 | 1011.8 |
| 20260505191306 | 70 | 223 | 10.0 | 23.0 | 0.00 | 0.00 | 0.00 | 30 | 1012.0 |
| 20260505190805 | 70 | 234 | 10.0 | 18.0 | 0.00 | 0.00 | 0.00 | 30 | 1012.0 |
| 20260505190305 | 71 | 176 | 6.0 | 16.0 | 0.00 | 0.00 | 0.00 | 29 | 1011.9 |
| 20260505185805 | 71 | 222 | 9.0 | 20.0 | 0.00 | 0.00 | 0.00 | 34 | 1011.9 |
| 20260505185305 | 71 | 247 | 12.0 | 20.0 | 0.00 | 0.00 | 0.00 | 32 | 1012.1 |
| 20260505184805 | 70 | 187 | 9.0 | 20.0 | 0.00 | 0.00 | 0.00 | 33 | 1012.4 |
| 20260505184305 | 70 | 261 | 3.0 | 21.0 | 0.00 | 0.00 | 0.00 | 35 | 1012.3 |
| 20260505183805 | 70 | 198 | 8.0 | 17.0 | 0.00 | 0.00 | 0.00 | 34 | 1012.3 |
| 20260505183305 | 70 | 238 | 6.0 | 12.0 | 0.00 | 0.00 | 0.00 | 35 | 1012.4 |
| 20260505182805 | 71 | 244 | 5.0 | 15.0 | 0.00 | 0.00 | 0.00 | 33 | 1012.2 |
| 20260505182306 | 73 | 242 | 7.0 | 12.0 | 0.00 | 0.00 | 0.00 | 33 | 1011.8 |
| 20260505181805 | 72 | 248 | 5.0 | 17.0 | 0.00 | 0.00 | 0.00 | 36 | 1012.1 |
| 20260505181305 | 70 | 91 | 2.0 | 17.0 | 0.00 | 0.00 | 0.00 | 36 | 1012.5 |
| 20260505180305 | 71 | 216 | 3.0 | 12.0 | 0.00 | 0.00 | 0.00 | 37 | 1012.4 |
| 20260505175306 | 71 | 184 | 7.0 | 17.0 | 0.00 | 0.00 | 0.00 | 40 | 1012.7 |
| 20260505174805 | 71 | 218 | 6.0 | 10.0 | 0.00 | 0.00 | 0.00 | 41 | 1012.3 |
| 20260505174305 | 71 | 182 | 4.0 | 12.0 | 0.00 | 0.00 | 0.00 | 39 | 1012.4 |
| 20260505173305 | 70 | 103 | 3.0 | 8.0 | 0.00 | 0.00 | 0.00 | 37 | 1012.7 |
| 20260505172804 | 70 | 168 | 5.0 | 10.0 | 0.00 | 0.00 | 0.00 | 36 | 1012.7 |
| 20260505172306 | 70 | 76 | 5.0 | 12.0 | 0.00 | 0.00 | 0.00 | 36 | 1012.9 |